Wetbulb
47.09 43.08 40.75 44.26 46.14 45.22 43.82 42.02 41.22 43.92 46.47 44.93 44.06 44.03 45.55 47.73 47.80 48.07 48.93 49.80 49.73 50.05 51.05 51.42 51.54 51.94 52.11 52.23 52.18 52.38 52.55 53.31 53.56 54.40 54.95 55.88 56.18 57.24 57.47 57.95 57.93 57.21 55.62 54.18
42.62 40.24 45.54 46.62 45.90 42.58 42.24 40.64 40.66 44.16 46.54 44.88 43.28 42.21 44.49 46.19 47.58 48.64 48.80 48.84 48.97 49.07 49.10 48.95 48.81 48.68 48.52 48.38 49.09 49.93 50.76 51.53 51.61 52.90 54.18 54.69 55.00 55.80 56.06 56.35 56.24 55.98 54.90 53.25
41.79 45.34 47.45 43.65 43.23 41.48 42.14 40.89 41.12 40.69 43.32 43.75 42.14 40.58 43.92 47.51 49.70 48.61 47.79 48.19 48.26 46.97 46.18 46.23 45.40 45.15 45.92 45.78 46.49 47.52 48.51 49.49 50.15 50.74 51.54 51.96 52.66 51.70 51.40 52.65 53.47 53.75 53.67 52.55
43.80 44.37 41.83 41.80 40.57 42.26 38.23 43.74 41.78 39.82 38.20 34.97 41.44 33.18 42.01 46.07 47.30 44.97 45.77 44.98 45.26 44.91 44.62 43.97 43.30 42.75 43.04 44.28 45.92 46.40 46.67 47.32 47.50 48.65 48.66 48.64 48.25 47.21 48.73 49.98 51.51 51.60 51.75 51.09
41.23 40.61 39.83 39.29 40.90 43.17 39.72 42.22 40.16 39.30 37.36 37.37 38.42 35.47 41.21 46.34 42.82 42.63 43.89 43.62 43.19 42.78 42.63 41.69 41.60 41.96 42.34 43.14 43.85 44.91 44.74 44.79 45.90 47.08 47.15 47.07 46.49 47.43 48.36 49.33 49.70 49.38 49.39 49.16
42.28 44.16 42.43 42.83 43.23 42.58 42.60 40.15 40.68 40.87 38.22 32.91 39.65 38.94 39.61 41.37 41.69 41.63 41.90 41.62 41.69 41.81 41.71 41.78 41.98 41.83 41.29 42.08 42.63 42.82 42.17 42.10 43.77 44.25 44.92 45.21 45.22 45.15 45.33 46.26 46.36 46.80 47.10 46.90
42.90 42.84 47.46 43.39 40.63 42.37 39.45 37.47 33.56 32.70 32.45 32.35 38.52 37.39 39.78 43.49 42.46 42.53 40.46 40.24 40.68 41.06 40.36 39.87 39.88 40.26 40.15 40.05 40.54 40.90 40.65 39.89 41.47 41.76 42.10 42.74 42.93 43.52 43.75 44.73 44.91 44.94 44.77 44.63
36.77 35.08 42.73 42.04 41.17 39.88 38.98 39.40 33.68 27.24 28.78 32.84 38.24 32.91 39.99 42.92 41.79 41.91 41.79 40.98 40.26 39.45 39.57 39.00 38.89 38.99 39.28 39.48 39.61 39.86 39.34 38.32 38.93 39.93 39.90 40.93 41.47 42.05 42.66 43.09 43.45 43.89 44.02 44.78
36.52 36.26 41.60 40.38 41.19 40.73 39.09 35.16 40.65 34.14 33.52 29.85 34.20 38.94 44.17 40.53 39.69 40.46 40.11 39.72 38.46 38.36 38.54 38.54 38.66 38.29 38.30 38.34 38.30 38.02 37.75 37.73 37.77 37.86 38.48 39.15 39.72 39.70 39.71 40.46 41.62 42.15 42.85 42.82
39.29 33.44 41.91 41.59 39.81 40.22 36.94 38.74 32.55 32.71 25.20 24.25 31.07 33.82 35.95 37.95 38.05 39.06 37.80 37.12 36.98 37.59 37.42 37.48 37.56 37.39 37.69 37.79 38.01 37.99 37.60 35.93 36.18 36.76 37.38 37.68 38.13 38.62 38.94 39.52 39.04 39.35 40.25 40.79
41.78 36.89 37.07 39.92 37.36 36.83 36.53 33.39 33.50 33.98 32.89 26.70 25.77 31.13 42.30 38.13 39.12 37.32 35.72 35.60 35.65 35.93 35.99 36.23 36.40 36.62 36.81 36.98 36.58 36.39 36.06 35.23 34.80 35.42 35.84 35.89 36.08 36.92 37.11 36.38 36.62 37.17 38.14 38.58
41.08 37.72 32.10 34.52 40.83 42.39 40.35 37.20 36.80 29.84 28.15 30.84 29.89 30.79 44.41 37.82 37.47 35.53 34.57 34.61 34.44 34.53 34.29 34.66 34.93 35.09 34.85 34.45 34.33 34.18 34.34 33.74 33.83 34.35 34.66 34.34 34.57 35.26 35.07 34.58 34.56 34.56 34.69 35.92
39.91 35.00 28.60 30.08 34.85 37.78 35.28 36.08 35.79 35.59 33.51 29.51 27.62 30.51 39.77 38.38 34.75 33.02 32.83 32.19 32.43 32.58 32.30 32.91 33.55 33.17 33.14 33.04 32.92 32.90 33.13 33.06 33.05 32.78 32.94 32.92 32.62 32.96 33.25 33.29 33.20 33.08 33.19 33.49
40.39 34.77 31.38 26.65 29.42 34.55 31.45 33.13 34.86 32.81 27.92 28.16 28.31 30.22 35.24 37.30 37.23 37.25 34.00 32.67 32.04 32.25 31.08 31.20 31.68 32.22 32.87 32.65 32.32 32.23 32.27 33.10 32.57 31.91 31.77 31.17 31.00 31.22 32.08 32.54 31.66 31.26 31.66 31.74
37.04 29.35 31.17 32.07 33.02 32.47 30.51 29.58 30.83 29.17 30.50 25.99 28.69 29.18 33.05 35.24 34.30 31.19 30.59 30.46 30.65 31.41 31.58 30.39 30.39 31.00 31.82 31.90 32.01 32.18 31.89 32.40 32.12 30.57 30.10 29.90 30.19 30.69 30.42 30.76 29.95 28.96 29.25 29.99
33.04 26.46 28.84 25.04 29.24 29.19 26.95 29.45 30.04 29.87 29.59 28.65 29.10 28.85 36.29 33.57 32.20 31.84 31.58 30.25 29.49 30.18 30.82 30.83 31.14 31.36 31.16 31.36 31.25 31.32 31.28 31.34 30.91 29.46 28.74 29.30 28.79 28.65 28.62 28.81 28.38 27.26 27.32 28.05
28.48 26.39 24.39 19.83 26.11 25.19 19.70 24.09 26.68 27.95 30.02 29.73 25.41 28.46 28.49 28.06 28.45 29.17 29.41 29.73 29.60 30.12 30.88 30.99 31.18 31.58 31.68 31.78 32.03 31.12 31.39 31.43 29.63 28.67 28.44 28.21 28.03 27.10 27.11 27.02 26.70 25.52 25.13 26.31
26.79 25.71 24.88 19.67 20.98 11.73 24.90 31.12 28.63 26.19 27.43 29.09 27.29 26.33 26.71 26.92 29.08 30.18 31.34 30.17 29.85 30.60 30.83 31.68 32.05 32.18 32.12 32.19 31.46 31.40 30.76 29.77 28.60 27.50 27.00 27.12 27.17 26.22 26.24 25.41 24.97 24.07 24.64 24.46
29.29 25.41 20.47 16.25 16.26 20.75 23.54 26.57 25.73 24.21 23.66 29.17 27.86 26.32 26.95 28.19 28.47 28.40 32.40 32.69 31.64 31.88 32.14 32.80 33.22 32.04 31.01 30.13 29.85 27.95 26.97 26.87 26.46 25.78 25.59 25.94 26.20 24.96 24.38 22.43 22.70 23.07 22.52 22.24
25.53 27.10 21.82 17.51 11.24 8.81 22.47 25.41 27.45 26.25 16.91 27.46 27.45 26.07 25.79 26.36 19.58 25.23 31.31 32.10 32.04 32.87 33.02 32.45 31.70 30.27 29.33 28.27 27.32 25.27 24.31 23.97 23.33 24.04 24.33 24.75 24.42 22.86 21.63 21.89 21.37 21.79 20.82 20.40
18.60 19.35 16.98 17.24 15.20 18.18 26.74 27.23 27.35 14.60 19.05 27.80 27.51 26.84 26.31 24.02 27.12 30.41 31.80 31.68 32.56 32.44 32.14 31.29 29.38 26.88 26.28 25.78 24.09 21.79 21.74 20.91 22.36 22.13 21.71 21.15 20.90 19.73 19.68 19.50 19.51 18.58 17.77 17.59
18.01 16.33 15.54 16.52 13.12 9.99 26.79 24.58 19.42 26.17 28.74 29.03 28.97 29.47 28.10 29.36 29.89 30.10 30.46 30.57 30.69 29.04 27.88 26.29 24.07 23.12 23.37 22.58 20.57 18.41 17.45 19.40 18.35 16.82 15.56 14.34 13.85 14.20 14.74 13.36 13.81 13.98 13.50 12.46
15.34 21.07 18.43 19.26 19.18 27.34 27.91 27.93 30.47 30.60 29.02 29.26 29.40 30.16 29.81 28.86 28.68 29.42 29.09 29.01 27.20 25.07 23.56 23.07 20.26 18.85 19.38 19.07 17.17 13.87 14.66 14.60 12.74 9.37 7.21 7.24 8.26 8.85 9.20 8.42 8.50 8.82 9.64 9.48
23.60 27.35 21.22 21.04 23.95 25.90 28.13 30.14 30.47 30.82 29.80 30.80 31.10 30.38 29.83 27.67 28.05 25.76 24.36 23.72 22.65 21.43 19.86 18.88 16.58 14.69 13.81 14.33 13.54 11.74 11.37 10.46 6.34 4.04 4.14 4.99 4.51 4.97 5.56 6.53 6.75 6.11 6.02 6.30
25.19 25.78 22.40 21.85 25.03 26.90 28.16 29.26 29.78 30.02 30.49 29.74 30.10 27.50 26.60 25.67 23.39 22.59 20.78 19.26 18.86 17.73 16.50 15.14 12.65 11.72 10.88 11.13 9.50 8.59 7.93 6.21 3.80 3.11 3.27 3.39 4.05 3.84 4.37 5.54 5.25 5.42 6.85 7.37
26.36 23.71 20.83 19.31 26.61 25.93 26.87 30.24 30.95 29.18 28.99 29.55 28.15 23.46 22.02 20.46 19.64 18.72 16.68 16.59 14.85 13.36 12.20 10.41 9.76 8.55 7.29 6.77 5.94 5.75 5.43 4.21 2.36 1.86 2.36 2.87 2.94 3.46 4.11 3.92 4.05 9.87 11.79 13.37
MSLP
1013.49 1013.17 1012.22 1011.50 1011.18 1010.85 1010.48 1009.99 1009.18 1009.00 1009.02 1008.74 1008.18 1007.32 1007.12 1006.64 1005.53 1004.51 1004.78 1004.63 1004.74 1005.29 1006.47 1007.82 1008.54 1008.64 1008.40 1008.22 1008.04 1008.18 1008.38 1008.76 1009.30 1009.89 1010.36 1010.54 1010.70 1011.22 1011.58 1012.04 1012.47 1013.04 1013.78 1014.48
1013.86 1012.63 1011.83 1011.52 1011.35 1011.53 1011.07 1010.33 1009.68 1009.06 1008.92 1008.82 1008.31 1007.54 1006.99 1005.99 1004.63 1004.60 1004.79 1005.34 1005.56 1006.36 1007.45 1008.95 1010.03 1010.35 1010.46 1010.42 1009.74 1009.31 1009.33 1009.34 1009.71 1009.97 1010.45 1010.66 1010.85 1011.05 1011.42 1011.89 1012.25 1012.56 1012.99 1013.83
1012.85 1011.87 1011.68 1012.08 1011.71 1011.51 1010.83 1010.37 1009.78 1009.43 1009.48 1009.67 1008.50 1007.12 1005.78 1004.98 1004.39 1005.03 1005.97 1006.52 1007.39 1008.63 1009.19 1010.15 1011.11 1011.41 1011.56 1011.70 1011.38 1010.76 1010.63 1010.54 1010.64 1010.78 1010.93 1011.15 1011.45 1011.62 1011.66 1011.94 1012.30 1012.71 1013.10 1013.36
1012.71 1012.73 1012.59 1012.33 1012.03 1011.72 1010.93 1011.03 1010.97 1010.84 1010.48 1009.52 1009.36 1006.78 1006.16 1004.90 1004.51 1006.30 1007.31 1009.19 1010.02 1010.51 1011.20 1011.87 1012.19 1012.31 1012.70 1012.89 1012.75 1012.29 1011.99 1011.47 1011.47 1011.79 1011.83 1011.71 1011.71 1011.93 1011.86 1011.93 1012.24 1012.74 1013.22 1013.54
1012.60 1012.83 1012.95 1012.54 1012.03 1011.92 1011.53 1011.86 1011.74 1011.48 1010.99 1010.21 1009.48 1008.29 1005.47 1004.90 1005.53 1007.17 1009.07 1010.80 1012.11 1012.66 1012.87 1013.11 1013.67 1013.87 1014.25 1014.35 1014.20 1013.87 1013.36 1012.72 1012.22 1012.24 1012.50 1012.35 1012.41 1012.38 1012.19 1011.92 1012.23 1012.59 1013.12 1013.51
1012.25 1012.85 1012.86 1012.33 1012.26 1012.34 1012.28 1012.28 1011.63 1011.01 1011.29 1009.69 1008.11 1007.66 1006.02 1005.75 1007.03 1008.61 1010.31 1011.70 1013.16 1014.19 1014.41 1014.59 1014.77 1014.68 1014.90 1014.96 1014.65 1014.49 1014.98 1014.19 1013.30 1013.17 1013.20 1013.20 1013.03 1012.84 1012.68 1012.60 1012.75 1012.83 1013.03 1013.31
1011.79 1011.83 1011.05 1012.15 1012.29 1012.25 1012.55 1012.50 1011.57 1010.87 1010.65 1009.68 1009.28 1008.59 1007.58 1007.72 1008.77 1009.75 1011.57 1012.98 1013.97 1014.53 1015.19 1015.51 1015.60 1015.75 1015.77 1015.59 1015.64 1015.58 1015.39 1014.20 1014.06 1014.51 1014.18 1014.15 1014.10 1013.38 1013.03 1012.82 1012.97 1012.94 1012.94 1012.99
1011.93 1010.98 1011.35 1012.05 1011.97 1011.92 1012.20 1012.25 1012.53 1012.28 1011.86 1010.71 1010.53 1008.88 1008.11 1008.79 1010.31 1011.55 1012.74 1013.55 1014.28 1014.81 1015.37 1015.83 1016.22 1016.82 1016.59 1016.90 1016.82 1016.44 1015.28 1014.63 1014.87 1015.42 1015.22 1014.91 1014.85 1014.25 1013.91 1013.48 1013.43 1013.18 1012.82 1012.70
1012.41 1011.79 1012.45 1012.71 1012.72 1013.07 1012.62 1012.92 1012.96 1013.83 1013.95 1013.10 1010.47 1008.78 1008.68 1009.89 1011.05 1011.80 1013.01 1014.08 1014.88 1015.40 1015.86 1015.95 1016.38 1016.57 1016.65 1016.70 1016.27 1016.26 1016.08 1015.77 1015.97 1015.93 1015.85 1015.68 1015.79 1015.08 1014.80 1014.53 1014.10 1013.47 1013.22 1012.85
1014.10 1013.87 1012.91 1012.98 1013.24 1013.12 1013.62 1013.98 1014.05 1014.75 1014.22 1012.35 1009.85 1008.72 1008.40 1009.71 1010.66 1012.38 1013.29 1014.42 1015.20 1015.54 1015.51 1015.69 1015.77 1015.96 1016.22 1016.13 1016.55 1016.77 1016.51 1016.62 1016.87 1016.58 1016.64 1016.81 1015.70 1015.57 1015.55 1015.15 1014.72 1014.36 1013.73 1013.30
1015.02 1015.58 1013.85 1013.68 1013.06 1013.06 1013.83 1014.01 1014.34 1014.56 1014.07 1012.63 1011.18 1009.11 1008.62 1010.07 1011.37 1013.07 1014.35 1015.06 1015.72 1016.01 1016.11 1016.11 1016.45 1016.21 1016.36 1016.76 1017.15 1017.25 1017.05 1016.97 1016.88 1016.51 1016.24 1015.84 1016.13 1016.45 1016.35 1015.77 1015.34 1014.96 1014.32 1013.88
1015.57 1015.69 1015.03 1013.57 1013.00 1013.31 1013.33 1013.69 1014.23 1014.39 1013.90 1013.14 1011.89 1009.75 1009.52 1011.67 1012.94 1014.51 1015.27 1015.86 1016.29 1016.53 1016.60 1016.70 1016.78 1017.10 1016.88 1016.94 1016.92 1016.85 1017.05 1016.85 1016.84 1017.08 1017.03 1016.77 1016.73 1016.61 1016.53 1016.58 1016.13 1015.47 1014.67 1014.04
1016.71 1016.43 1015.97 1014.36 1013.32 1013.93 1014.17 1015.18 1015.72 1015.36 1014.71 1013.12 1012.23 1010.55 1011.59 1013.02 1014.78 1015.76 1016.23 1016.69 1016.67 1016.77 1016.61 1016.99 1017.15 1017.19 1017.14 1017.18 1017.32 1017.57 1017.60 1017.40 1017.31 1017.43 1017.49 1017.11 1017.05 1016.90 1016.61 1016.46 1016.44 1016.01 1015.27 1014.59
1017.81 1017.90 1017.40 1016.34 1014.75 1014.75 1015.34 1015.61 1016.07 1016.06 1015.01 1013.78 1013.26 1012.27 1011.88 1012.37 1013.23 1014.69 1015.63 1016.20 1016.61 1016.85 1017.23 1017.18 1017.18 1017.54 1017.76 1017.56 1017.72 1017.97 1017.82 1017.59 1017.68 1017.79 1017.65 1017.29 1017.26 1017.16 1016.79 1016.46 1016.20 1015.98 1015.53 1014.85
1018.66 1018.37 1017.98 1017.07 1016.50 1016.46 1016.44 1016.52 1015.50 1015.39 1014.87 1014.59 1013.20 1012.94 1012.77 1013.14 1013.81 1015.24 1016.25 1016.45 1016.60 1016.84 1016.95 1017.23 1017.67 1018.04 1017.89 1017.79 1017.83 1017.90 1017.97 1017.78 1017.92 1018.06 1017.78 1017.64 1017.41 1017.12 1016.79 1016.43 1016.02 1015.70 1015.39 1014.81
1019.67 1018.81 1018.55 1017.83 1017.47 1017.11 1016.36 1015.43 1014.88 1014.94 1014.51 1014.16 1014.10 1013.27 1013.12 1013.82 1014.77 1015.22 1015.59 1015.88 1016.19 1016.45 1016.73 1017.13 1017.61 1017.75 1017.84 1017.98 1018.13 1018.29 1018.18 1018.06 1018.08 1017.84 1017.53 1017.36 1017.10 1016.77 1016.42 1015.94 1015.60 1015.15 1014.96 1014.43
1019.95 1019.73 1019.39 1017.97 1017.77 1017.20 1016.04 1014.50 1014.91 1014.44 1014.13 1014.08 1013.82 1013.92 1014.45 1015.01 1015.36 1015.49 1015.83 1016.15 1016.24 1016.44 1016.55 1016.79 1017.11 1017.29 1017.38 1017.46 1017.67 1017.83 1017.84 1017.83 1017.88 1017.83 1017.55 1017.29 1016.98 1016.59 1016.09 1015.67 1015.20 1014.88 1014.55 1013.84
1019.55 1019.95 1020.18 1018.62 1018.74 1017.06 1014.22 1014.19 1014.70 1014.49 1014.27 1014.43 1015.00 1015.47 1015.93 1016.01 1015.92 1015.91 1016.07 1016.17 1016.29 1016.32 1016.35 1016.35 1016.48 1016.86 1017.08 1017.32 1017.54 1017.58 1017.64 1017.73 1017.78 1017.64 1017.35 1016.96 1016.78 1016.45 1015.75 1015.16 1014.72 1014.18 1013.80 1013.15
1019.37 1019.83 1019.73 1019.18 1017.88 1015.91 1015.19 1015.04 1014.89 1014.74 1014.47 1015.04 1015.43 1015.89 1016.09 1016.21 1016.02 1015.55 1015.59 1015.70 1015.89 1015.99 1016.24 1016.27 1016.31 1016.90 1017.24 1017.55 1017.69 1017.90 1017.77 1017.65 1017.61 1017.40 1017.14 1016.78 1016.31 1015.70 1015.20 1014.77 1014.39 1013.80 1013.25 1012.38
1019.50 1019.46 1019.73 1019.21 1018.25 1016.32 1015.26 1015.84 1015.81 1015.91 1015.21 1015.33 1015.82 1016.29 1016.44 1016.60 1016.32 1015.42 1015.59 1015.94 1015.91 1016.01 1016.17 1016.27 1016.62 1017.16 1017.43 1017.83 1018.06 1018.04 1017.83 1017.63 1017.43 1017.08 1016.62 1016.24 1015.91 1015.53 1014.95 1014.36 1013.62 1012.92 1012.55 1011.63
1019.65 1019.61 1019.02 1018.26 1017.50 1016.15 1015.58 1015.80 1016.37 1016.25 1015.35 1015.55 1016.14 1016.42 1016.55 1016.56 1016.29 1015.84 1015.67 1015.60 1015.82 1015.99 1016.22 1016.68 1017.16 1017.66 1018.07 1018.23 1018.30 1018.03 1017.82 1017.65 1017.39 1017.02 1016.56 1016.14 1015.79 1015.34 1014.75 1014.04 1013.38 1012.73 1011.99 1011.31
1018.63 1018.46 1018.12 1018.04 1017.29 1016.33 1015.77 1016.26 1016.31 1015.22 1015.34 1015.74 1015.76 1015.70 1015.83 1015.82 1015.65 1015.65 1015.63 1015.63 1015.81 1016.42 1016.91 1017.60 1017.93 1017.99 1018.12 1018.43 1018.46 1018.06 1017.87 1017.88 1017.82 1017.59 1017.02 1016.51 1016.11 1015.55 1014.83 1014.21 1013.31 1012.72 1011.95 1010.88
1018.35 1017.45 1017.00 1017.09 1015.83 1015.27 1015.70 1015.31 1015.12 1015.11 1015.00 1014.97 1015.20 1015.15 1015.34 1015.38 1015.38 1015.51 1015.75 1016.14 1016.71 1017.40 1017.94 1018.34 1018.69 1018.65 1018.64 1018.89 1019.09 1018.57 1018.12 1018.14 1017.92 1017.72 1017.32 1016.82 1016.24 1015.58 1014.91 1014.00 1012.90 1012.02 1011.39 1010.37
1016.95 1016.21 1016.18 1016.15 1015.46 1014.70 1014.82 1014.56 1014.42 1014.45 1014.41 1014.33 1014.59 1014.76 1015.20 1015.46 1015.65 1016.12 1016.73 1017.30 1017.77 1018.30 1018.66 1019.01 1019.17 1019.11 1018.85 1019.09 1019.21 1019.09 1018.69 1018.54 1018.15 1017.45 1016.89 1016.40 1015.77 1014.95 1014.32 1013.51 1012.59 1011.55 1010.61 1009.47
1015.62 1015.27 1014.88 1014.59 1014.25 1014.16 1014.11 1013.82 1013.79 1013.86 1014.00 1014.18 1014.53 1015.01 1015.48 1016.01 1016.53 1017.08 1017.65 1018.27 1018.69 1019.03 1019.39 1019.73 1019.89 1019.69 1019.39 1019.32 1019.12 1019.18 1018.86 1018.56 1017.92 1017.24 1016.52 1015.75 1014.95 1014.03 1013.03 1012.36 1011.59 1010.60 1009.64 1008.80
1014.38 1013.79 1014.02 1013.12 1013.06 1013.19 1012.87 1012.77 1013.11 1013.51 1013.69 1013.93 1014.50 1015.64 1016.33 1017.01 1017.56 1018.11 1018.66 1019.19 1019.67 1019.95 1020.24 1020.31 1020.33 1020.24 1019.87 1019.60 1019.18 1018.85 1018.62 1018.29 1017.55 1016.59 1015.82 1015.00 1014.10 1013.08 1012.08 1010.94 1009.70 1009.16 1007.82 1006.66
Wind_Speed
9 9 11 15 16 20 22 22 24 21 20 23 24 24 20 19 25 24 19 13 6 9 13 17 17 17 16 15 11 7 4 5 5 7 7 8 9 8 8 8 10 10 10 12
4 12 15 16 15 13 18 22 23 21 18 16 19 23 25 23 21 15 12 10 3 11 17 17 18 18 19 18 17 15 10 4 3 5 5 6 6 7 7 7 8 10 11 12
16 16 15 10 13 17 20 18 21 24 18 18 18 19 10 10 17 5 10 13 16 17 16 16 17 19 18 19 18 16 15 11 6 3 3 3 4 2 5 6 6 7 10 11
11 6 5 10 12 16 18 16 14 15 12 9 7 10 16 18 13 15 19 15 14 15 16 16 16 19 20 17 16 17 15 13 10 8 4 4 5 5 6 5 4 5 8 10
1 1 3 7 10 11 13 6 10 10 12 16 13 10 6 13 5 15 15 14 14 14 15 16 16 15 16 16 15 15 15 16 15 11 8 4 4 5 6 5 1 5 6 9
12 4 5 7 7 8 8 10 14 16 8 9 11 12 5 5 11 9 14 13 12 12 14 14 13 14 15 14 13 15 15 15 17 15 12 10 7 6 5 6 3 3 4 5
6 14 12 6 9 8 7 9 7 5 7 7 5 8 8 8 8 10 11 10 10 11 12 13 14 13 13 13 12 11 14 16 16 14 14 14 12 9 7 7 4 5 5 5
8 11 5 9 10 6 7 4 4 6 10 15 14 9 7 11 12 12 10 10 10 10 9 9 10 8 10 11 11 10 12 15 15 14 14 13 13 8 8 9 7 6 5 5
6 6 3 5 1 3 4 6 5 2 3 6 10 17 15 14 11 11 9 8 8 7 7 8 8 9 9 10 12 13 14 14 14 14 11 12 11 12 10 10 9 7 8 7
3 8 5 2 1 7 3 4 3 5 6 12 14 18 14 14 13 9 8 6 7 7 9 10 10 11 11 12 11 11 12 13 12 12 10 9 11 12 11 9 10 10 9 10
3 4 4 4 7 12 6 6 5 6 8 11 15 13 9 10 8 5 5 7 8 9 9 9 8 9 9 9 9 9 10 11 10 11 11 11 10 11 11 11 11 11 10 10
9 4 9 21 21 20 16 18 17 13 13 10 15 18 8 14 6 4 3 4 3 4 6 8 9 9 10 11 12 13 12 12 12 12 10 10 10 9 9 10 11 11 13 12
3 2 5 9 12 6 4 5 7 10 4 13 15 6 10 7 5 2 5 3 2 3 6 6 7 9 10 11 11 12 11 11 10 11 10 10 9 9 9 9 10 11 11 11
3 4 12 14 19 19 14 14 11 7 6 12 14 20 28 24 16 13 9 4 4 2 3 6 7 8 7 7 8 9 10 9 10 10 11 10 10 10 10 9 8 10 11 11
4 9 14 17 18 17 17 17 25 24 23 22 23 24 23 20 12 3 2 2 4 6 5 4 5 7 9 9 9 9 10 9 9 10 9 9 10 10 10 9 9 9 10 10
3 9 9 15 16 18 20 24 24 23 24 25 24 27 22 6 3 4 4 4 5 6 6 6 7 7 7 7 8 9 10 9 8 10 11 11 11 11 10 11 10 10 11 11
5 5 6 15 14 15 13 20 22 23 25 25 23 13 6 4 3 6 8 9 10 10 10 9 8 7 6 8 8 9 10 9 9 11 11 11 11 12 12 12 12 12 13 13
12 11 8 11 8 17 12 8 10 16 18 13 4 5 4 3 8 10 10 10 11 13 14 12 9 10 8 9 9 9 8 9 10 12 13 14 13 14 13 13 14 14 13 14
17 14 8 8 12 18 22 17 15 13 16 1 6 8 3 8 12 14 9 9 12 12 11 11 8 9 9 9 8 8 9 11 12 13 14 14 15 15 16 17 18 17 14 15
7 14 11 5 9 12 8 3 3 1 10 6 5 5 4 7 9 12 14 12 12 11 9 10 7 9 10 8 7 8 10 11 13 13 14 14 15 15 16 18 19 18 16 18
4 5 14 14 13 11 7 4 3 7 7 8 6 4 10 11 11 14 13 12 11 9 9 7 9 9 9 8 9 11 12 12 13 14 15 15 16 17 18 19 17 18 18 19
7 6 7 7 11 15 3 6 7 2 5 8 8 13 12 13 13 12 14 12 10 10 9 9 9 10 10 10 10 13 14 13 13 15 17 17 17 15 15 19 18 18 18 20
8 11 6 8 6 5 8 8 9 12 12 17 16 14 13 13 14 12 11 9 8 8 8 8 8 11 11 10 10 14 16 16 16 15 16 16 17 16 16 18 19 17 16 16
15 20 14 15 17 21 19 19 19 19 18 18 16 12 10 13 9 4 4 6 6 7 9 9 10 12 14 11 12 13 15 15 15 17 16 15 15 16 16 13 13 14 14 15
13 9 14 15 21 18 20 21 20 20 18 17 10 5 8 6 5 4 4 5 7 8 9 9 11 12 14 15 15 13 14 14 15 16 16 16 14 15 15 14 13 14 15 17
17 20 14 16 20 17 19 18 14 13 17 13 9 7 4 2 4 3 4 5 6 8 9 10 12 13 15 15 16 15 14 14 16 16 14 13 14 14 14 14 15 24 32 34
Wind_Direction
192 224 221 249 254 262 280 287 285 288 293 290 288 294 297 286 279 283 287 305 306 50 52 51 39 32 33 34 29 6 295 225 223 217 222 219 223 214 221 223 220 216 205 206
190 243 257 276 276 289 280 280 283 284 292 306 298 291 291 285 275 283 295 313 65 97 68 55 39 34 29 24 25 24 13 340 229 245 238 242 237 233 230 226 228 215 207 202
258 276 299 287 266 268 266 276 287 297 312 299 291 285 254 277 298 31 37 82 77 64 63 50 37 33 32 27 23 29 24 20 4 320 285 264 284 288 268 233 236 223 223 207
268 346 309 282 267 269 283 299 314 307 311 295 21 292 297 273 265 80 93 70 71 68 61 50 41 35 28 24 19 30 33 40 37 13 337 325 283 275 269 256 234 224 223 228
55 74 317 273 275 287 282 340 312 298 278 284 269 251 289 286 181 114 91 74 63 58 53 55 46 44 39 28 25 26 32 35 36 34 13 345 324 307 313 307 202 212 223 222
252 172 230 245 292 251 317 285 274 261 269 260 276 252 280 49 105 113 96 81 63 49 49 49 49 46 39 32 33 28 30 36 33 29 22 8 349 333 315 311 306 274 242 229
231 238 262 212 265 201 222 271 307 279 208 269 60 331 267 347 81 116 109 90 73 66 52 41 35 34 36 37 34 32 25 36 35 29 26 15 360 352 338 328 300 277 268 237
277 291 202 162 222 318 192 257 218 279 289 296 321 260 250 126 116 110 111 98 82 63 54 47 40 34 38 30 33 34 40 39 32 22 22 23 16 3 348 343 324 306 299 274
287 242 102 212 351 274 155 221 279 211 217 266 248 267 263 140 142 135 118 95 70 63 52 51 55 46 44 39 36 30 33 33 29 23 19 18 11 13 7 354 342 334 320 314
59 288 259 283 219 223 247 1 199 164 255 258 260 278 270 206 176 153 120 72 38 28 32 32 31 33 31 34 27 32 34 34 27 25 17 2 9 7 2 0 0 348 334 321
165 201 248 273 217 252 227 246 226 291 246 260 271 268 308 66 113 127 56 32 20 15 15 17 18 26 32 28 23 25 27 30 23 19 17 16 14 2 355 354 353 352 342 335
196 250 255 270 287 282 274 269 267 254 248 226 251 249 288 26 88 53 9 4 27 26 23 20 15 11 19 18 15 14 13 18 17 10 5 8 5 1 359 353 348 344 340 338
34 232 285 288 283 55 32 352 322 298 274 246 261 270 36 14 9 1 333 291 314 344 24 14 9 9 7 6 4 358 358 3 4 360 353 354 358 351 348 346 342 338 335 327
120 237 242 265 277 305 298 307 270 240 264 294 277 287 293 286 277 252 275 219 233 241 327 350 357 352 348 353 347 340 343 350 348 342 339 339 342 334 333 327 327 326 323 319
250 256 265 270 278 291 292 282 271 270 269 266 280 282 283 299 326 31 176 237 264 260 258 305 315 312 322 333 333 334 331 336 331 323 322 317 319 315 315 311 312 314 310 305
191 261 287 274 272 268 267 265 267 274 275 273 272 270 275 0 327 295 319 334 326 307 288 281 272 275 279 285 297 306 311 316 328 317 312 311 309 307 303 304 301 305 303 301
239 251 256 263 280 299 274 254 260 260 265 269 274 306 31 43 328 332 333 325 316 319 306 278 282 287 279 277 283 289 298 304 305 299 296 295 297 297 301 304 304 301 300 298
247 242 251 275 294 254 264 288 299 283 284 288 267 138 123 352 327 319 318 299 301 310 313 299 292 300 310 308 303 293 287 284 282 285 291 296 294 290 292 299 297 299 298 297
234 249 258 250 244 278 293 290 290 260 280 229 212 177 168 340 330 302 305 329 324 312 300 296 306 304 309 312 326 314 294 287 284 281 281 281 283 286 292 293 293 293 297 295
241 232 232 189 248 262 315 67 32 20 268 173 163 168 317 326 291 294 324 312 305 305 305 315 327 309 312 333 321 301 296 296 292 290 289 289 288 285 284 284 285 288 291 289
187 222 225 237 247 259 275 91 142 247 299 153 164 262 285 277 275 295 297 292 295 303 322 324 316 320 317 327 321 303 304 301 304 307 304 300 294 291 289 289 287 289 287 286
218 235 218 236 257 266 80 122 225 294 135 170 235 295 285 276 283 287 292 294 314 335 337 340 324 314 323 330 327 313 306 314 314 307 302 303 303 299 296 292 289 285 285 283
237 237 266 229 243 204 189 251 253 267 276 285 289 293 288 284 277 287 290 310 319 327 325 327 322 312 311 323 324 308 308 315 313 309 301 297 296 294 292 290 288 287 282 277
263 254 250 254 249 260 270 268 269 271 274 284 284 278 270 270 283 302 299 298 308 312 319 328 321 310 306 318 314 303 309 312 308 302 300 298 293 293 289 283 282 280 280 279
247 283 253 256 257 266 260 261 264 266 268 273 284 264 255 255 253 273 288 301 305 316 319 321 312 304 305 311 307 308 307 307 301 300 299 297 292 289 289 281 280 276 271 270
244 251 253 256 259 260 269 275 280 284 281 266 253 202 188 208 258 284 286 306 311 311 317 308 305 303 302 302 303 306 308 306 301 301 300 296 295 290 286 285 282 275 280 283